Location: Newark
(48.8833°N, 0.9236°W)
Time: 08:19:22
(UTC+00:00)

Transit 4A - Pass Details

Date: 22 November 2019
Orbit: 870 x 975 km, 66.8° (Epoch: 08 December)

Event Time Altitude Azimuth Distance (km) Brightness Sun altitude
Exits shadow 05:46:30 13° 324° (NW) 2,325 9.6 -15.5°
Maximum altitude 05:51:48 90° 199° (SSW) 886 7.8 -14.6°
Drops below altitude 10° 05:57:37 10° 147° (SSE) 2,514 10.9 -13.7°
Sets 06:00:04 0° 147° (SSE) 3,445 11.7 -13.3°
